Main page
METAR-TAF:

METAR-TAF

Airports :

Wings Field

Philadelphia / Blue Bell, Pennsylvania, United States

latitude: 40-08-15N, longitude: 075-15-54W, elevation: 302 ft

Current weather observation

The report was made 16 minutes ago, at 21:15 UTC
Wind 12 mph from the North/Northwest with gusts up to 17 mph
Temperature 54°F
Humidity 40%
Pressure 29.74 in. Hg
Visibility: 10 miles
Overcast at a height of 6000 ft

METAR: KLOM 012115Z AUTO 33010G15KT 10SM OVC060 12/M01 A2974 RMK AO2 T01181014

Time: 17:31 (21:31 UTC)


TAF: missing

Weather observations and forecasts of more than 4000 airports (METAR and TAF reports).

The available stations are represented by yellow and red dots on the map.

Hover mouse over dot to see the name of the station.

Then click to see weather observations and forecasts.

To change the map : click on the green buttons with a black cross to zoom in, on the green button with a dash to zoom out, or on the green arrows for adjacent maps.


METAR-TAF: